This is the latest recevied weather packets stored in our database for station/object WL7CLI. If no packets are shown the sender has not sent any weather packets the latest 10 day(s).
| Time | Temp. | Humidity | Pressure | Rain* | Wind** | Luminosity | Snow |
|---|---|---|---|---|---|---|---|
| 1778126298 | 6.67° C | 55% | 1016.3 hPa | 0 mm | - | - | - |
| 1778126175 | 6.67° C | 53% | 1016.3 hPa | 0 mm | - | - | - |
| 1778125100 | 7.22° C | 54% | 1016.4 hPa | 0 mm | - | - | - |
| 1778124975 | 7.22° C | 52% | 1016.4 hPa | 0 mm | - | - | - |
| 1778124505 | 7.22° C | 53% | 1015.9 hPa | 0 mm | - | - | - |
| 1778123899 | 7.78° C | 51% | 1016.5 hPa | 0 mm | - | - | - |
| 1778123774 | 7.78° C | 51% | 1016.5 hPa | 0 mm | - | - | - |
| 1778122705 | 7.78° C | 48% | 1016 hPa | 0 mm | - | - | - |
| 1778122699 | 7.78° C | 48% | 1016.5 hPa | 0 mm | - | - | - |
| 1778122574 | 8.33° C | 48% | 1016.5 hPa | 0 mm | - | - | - |
| 1778121498 | 8.33° C | 49% | 1016.5 hPa | 0 mm | - | - | - |
| 1778121374 | 8.33° C | 49% | 1016.5 hPa | 0 mm | - | - | - |
| 1778120905 | 8.89° C | 47% | 1015.9 hPa | 0 mm | - | - | - |
| 1778120299 | 9.44° C | 46% | 1016.4 hPa | 0 mm | - | - | - |
| 1778120174 | 9.44° C | 46% | 1016.4 hPa | 0 mm | - | - | - |
| 1778119105 | 10° C | 41% | 1015.8 hPa | 0 mm | - | - | - |
| 1778119098 | 10° C | 41% | 1016.3 hPa | 0 mm | - | - | - |
| 1778118974 | 10° C | 40% | 1016.3 hPa | 0 mm | - | - | - |
| 1778117900 | 11.11° C | 39% | 1016.2 hPa | 0 mm | - | - | - |
| 1778117774 | 11.11° C | 40% | 1016.2 hPa | 0 mm | - | - | - |
| 1778117305 | 11.67° C | 37% | 1015.8 hPa | 0 mm | - | - | - |
| 1778116699 | 12.22° C | 35% | 1016.1 hPa | 0 mm | - | - | - |
| 1778116575 | 12.22° C | 34% | 1016.1 hPa | 0 mm | - | - | - |
| 1778115505 | 12.78° C | 33% | 1015.8 hPa | 0 mm | - | - | - |
| 1778115500 | 12.78° C | 33% | 1016.1 hPa | 0 mm | - | - | - |
* Rain latest hour (hover to see other rain measurements)
** Current wind speed in m/s (hover to see current wind gust speed)